Location: Oshawa
(43.9000°N, 78.8670°W)
Time: 11:33:24
(UTC-04:00)

Altair - Visible Passes

Search period start: 31 July 2014 00:00
Search period end: 10 August 2014 00:00
Orbit: 1502 x 1682 km, 47.2° (Epoch: 29 July)

Date Brightness Start Highest point End Pass type
(mag) Time Alt. Az. Time Alt. Az. Time Alt. Az.
31 Jul 8.3 02:40:39 27° SSE 02:42:38 30° SE 02:50:11 10° ENE visible
31 Jul 7.5 04:38:39 16° SW 04:46:18 77° SSE 04:55:35 10° ENE visible
01 Aug 8.3 02:16:43 27° SE 02:17:38 27° SE 02:24:54 10° ENE visible
01 Aug 7.4 04:14:43 22° SW 04:21:12 74° SSE 04:30:26 10° ENE visible
02 Aug 8.5 01:52:44 25° SE 01:52:44 25° SE 01:59:35 10° E visible
02 Aug 7.4 03:50:45 28° SW 03:56:06 70° SSE 04:05:16 10° ENE visible
03 Aug 8.6 01:28:44 22° ESE 01:28:44 22° ESE 01:34:13 10° E visible
03 Aug 7.4 03:26:44 35° SW 03:31:01 66° SSE 03:40:07 10° ENE visible
03 Aug 7.7 05:26:33 10° W 05:35:44 75° N 05:45:07 10° ENE visible
04 Aug 8.8 01:04:42 19° ESE 01:04:42 19° ESE 01:08:49 10° E visible
04 Aug 7.4 03:02:42 42° SSW 03:05:56 62° SSE 03:14:57 10° ENE visible
04 Aug 7.6 05:01:23 10° W 05:10:34 77° N 05:19:56 10° ENE visible
05 Aug 8.9 00:40:37 16° ESE 00:40:37 16° ESE 00:43:20 10° E visible
05 Aug 7.5 02:38:37 48° S 02:40:52 58° SE 02:49:48 10° ENE visible
05 Aug 7.5 04:36:37 12° W 04:45:25 78° NNW 04:54:45 10° ENE visible
06 Aug 9.1 00:16:31 13° E 00:16:31 13° E 00:17:47 10° E visible
06 Aug 7.4 02:14:30 51° S 02:15:48 55° SE 02:24:38 10° ENE visible
06 Aug 7.5 04:12:30 16° W 04:20:16 80° NNW 04:29:34 10° ENE visible
07 Aug 7.5 01:50:21 51° SSE 01:50:45 51° SE 01:59:29 10° ENE visible
07 Aug 7.4 03:48:21 21° WSW 03:55:06 82° NNW 04:04:24 10° ENE visible
08 Aug 7.6 01:26:10 47° SE 01:26:10 47° SE 01:34:19 10° ENE visible
08 Aug 7.4 03:24:09 26° WSW 03:29:58 85° NNW 03:39:14 10° ENE visible
08 Aug 7.7 05:25:59 10° W 05:35:11 74° N 05:44:32 10° E visible
09 Aug 7.8 01:01:56 42° ESE 01:01:56 42° ESE 01:09:08 10° ENE visible
09 Aug 7.3 02:59:55 32° WSW 03:04:49 87° NNW 03:14:05 10° ENE visible
09 Aug 7.7 05:00:49 10° W 05:10:00 73° N 05:19:20 10° E visible
